Regional Weather Roundup
Issued by NWS

Home | Current Version | Previous Version | Graphics & Text | Print | Product List | Glossary On
Versions: 1 2 3 4 5 6 7 8 9 10 11 12 13 14 15 16 17 18 19 20 21 22 23 24 25 26 27 28 29 30 31 32 33 34 35 36 37 38 39 40 41 42 43 44 45 46 47 48 49 50
000
ASUS43 KOAX 201102
RWRNE

WEATHER ROUNDUP FOR NEBRASKA
NATIONAL WEATHER SERVICE OMAHA NE
600 AM CDT WED SEP 20 2017

NOTES: SATELLITE DATA IS BEING USED TO AUGMENT CLOUD COVER ABOVE
       12000 FEET.
       "FAIR" INDICATES FEW OR NO CLOUDS BELOW 12,000 FEET WITH NO
       SIGNIFICANT WEATHER AND/OR OBSTRUCTIONS TO VISIBILITY.


NEZ001>004-019>022-054>056-201200-
NEBRASKA PANHANDLE

CITY           SKY/WX    TMP DP  RH WIND       PRES   REMARKS
SCOTTSBLUFF    CLOUDY    52  29  41 W10       29.89R
ALLIANCE       PTCLDY    50  32  50 NW8       29.87R
CHADRON        CLEAR     43  33  68 S8        29.85R
GORDON         FAIR      47  33  58 W9        29.84S
KIMBALL        CLOUDY    52  28  39 NW18G25   29.90R
SIDNEY         CLEAR     52  29  41 N9        29.91R
$$

NEZ057>060-069>072-079>082-201200-
SOUTHWEST NEBRASKA

CITY           SKY/WX    TMP DP  RH WIND       PRES   REMARKS
NORTH PLATTE   PTCLDY    41  38  89 NW5       29.88R
IMPERIAL       CLOUDY    46  34  62 W5        29.91R
LEXINGTON      CLEAR     46  43  86 NW5       29.85R
MCCOOK         CLOUDY    45  36  70 NW10      29.87R
OGALLALA       CLOUDY    39  34  81 W5        29.90R
$$

NEZ005>010-023>029-035>040-094-201200-
NORTH CENTRAL NEBRASKA

CITY           SKY/WX    TMP DP  RH WIND       PRES   REMARKS
VALENTINE      CLOUDY    52  46  80 CALM      29.85R
AINSWORTH      PTCLDY    50  47  91 W5        29.85R
BROKEN BOW     CLEAR     46  41  82 NW6       29.84R
O`NEILL        CLEAR     50  48  93 NW8       29.81S
ORD            CLEAR     49  45  86 NW6       29.81R
THEDFORD       PTCLDY    47  42  82 SW3       29.87R
$$

NEZ041-046>049-061>064-073>077-083>087-201200-
SOUTH CENTRAL NEBRASKA

CITY           SKY/WX    TMP DP  RH WIND       PRES   REMARKS
GRAND ISLAND   CLEAR     53  50  89 NW6       29.80R
AURORA         CLEAR     54  51  87 NW9       29.79R
HASTINGS       CLEAR     55  48  77 N9        29.80R
HEBRON         CLEAR     63  51  65 NW8       29.75R
HOLDREGE       CLEAR     50  45  81 NW7       29.83R
KEARNEY        CLEAR     53  46  77 NW8       29.83R
YORK           CLEAR     57  52  82 NW8       29.76R
$$

NEZ011>018-030>034-042>045-201200-
NORTHEAST NEBRASKA

CITY           SKY/WX    TMP DP  RH WIND       PRES   REMARKS
NORFOLK        PTCLDY    54  52  93 W3        29.77R
ALBION         CLEAR     54  49  86 NW7       29.79R
BLAIR          MOCLDY    66  60  80 N10       29.69R
COLUMBUS       CLEAR     56  53  90 W3        29.76R
FREMONT        CLEAR     62  53  73 NW7       29.72R
TEKAMAH        PTCLDY    62  55  77 N6        29.70R
WAYNE          CLEAR     56  53  91 CALM      29.76R
$$

NEZ050>053-065>068-078-088>093-201200-
SOUTHEAST NEBRASKA

CITY           SKY/WX    TMP DP  RH WIND       PRES   REMARKS
LINCOLN        CLEAR     66  50  56 N13       29.71R
OMAHA EPPLEY   CLOUDY    70  60  70 N10       29.67R
BEATRICE       CLEAR     65  60  82 NW5       29.71R
FALLS CITY     CLEAR     76  69  79 S8        29.68S
NEBRASKA CITY  CLEAR     73  73 100 S8        29.67S
PLATTSMOUTH    CLEAR     72  71  96 SE6       29.67R
$$

NEZ044-045-051>053-067-201200-
OMAHA AREA

CITY           SKY/WX    TMP DP  RH WIND       PRES   REMARKS
OMAHA EPPLEY   CLOUDY    70  60  70 N10       29.67R
BLAIR          MOCLDY    66  60  80 N10       29.69R
FREMONT        CLEAR     62  53  73 NW7       29.72R
MILLARD        CLOUDY    73  61  67 N6        29.68R
OFFUTT AFB     MOCLDY    70  68  94 NW7       29.65R
PLATTSMOUTH    CLEAR     72  71  96 SE6       29.67R
WAHOO          FAIR      61  54  77 NW7       29.71R
$$



USA.gov is the U.S. government's official web portal to all federal, state and local government web resources and services.